This is the latest recevied weather packets stored in our database for station/object IW1CGW-13. If no packets are shown the sender has not sent any weather packets the latest 10 day(s).
| Time | Temp. | Humidity | Pressure | Rain* | Wind** | Luminosity | Snow |
|---|---|---|---|---|---|---|---|
| 1777745039 | 15.56° C | 56% | 1020.3 hPa | - | - | - | - |
| 1777744413 | 16.11° C | 56% | 1020.3 hPa | - | - | - | - |
| 1777743792 | 16.67° C | 56% | 1020.4 hPa | - | - | - | - |
| 1777743168 | 17.22° C | 56% | 1020.2 hPa | - | - | - | - |
| 1777742547 | 17.78° C | 56% | 1020.2 hPa | - | - | - | - |
| 1777741926 | 18.33° C | 56% | 1020.3 hPa | - | - | - | - |
| 1777741306 | 18.33° C | 56% | 1020.3 hPa | - | - | - | - |
| 1777740683 | 18.89° C | 56% | 1020.3 hPa | - | - | - | - |
| 1777740063 | 19.44° C | 56% | 1020.4 hPa | - | - | - | - |
| 1777739440 | 18.89° C | 56% | 1020.5 hPa | - | - | - | - |
| 1777738815 | 19.44° C | 56% | 1020.6 hPa | - | - | - | - |
| 1777738194 | 20° C | 56% | 1020.7 hPa | - | - | - | - |
| 1777737574 | 20.56° C | 56% | 1020.7 hPa | - | - | - | - |
| 1777736951 | 22.22° C | 55% | 1020.8 hPa | - | - | - | - |
| 1777736330 | 22.78° C | 56% | 1020.9 hPa | - | - | - | - |
| 1777735709 | 22.78° C | 58% | 1021 hPa | - | - | - | - |
| 1777735086 | 22.78° C | 58% | 1021.1 hPa | - | - | - | - |
| 1777734461 | 22.22° C | 58% | 1021.2 hPa | - | - | - | - |
| 1777733840 | 22.22° C | 59% | 1021.3 hPa | - | - | - | - |
| 1777733220 | 21.67° C | 59% | 1021.4 hPa | - | - | - | - |
| 1777731974 | 22.22° C | 59% | 1021.7 hPa | - | - | - | - |
| 1777731353 | 21.11° C | 60% | 1022 hPa | - | - | - | - |
| 1777730731 | 21.67° C | 59% | 1022.2 hPa | - | - | - | - |
| 1777730110 | 21.11° C | 59% | 1022.3 hPa | - | - | - | - |
| 1777729486 | 21.67° C | 59% | 1022.4 hPa | - | - | - | - |
* Rain since midnight (hover to see other rain measurements)
** Current wind speed in m/s (hover to see current wind gust speed)